Volver al catálogo

CZ-6A DEB

ActivoPO
NORAD 61828·DEBRIS·🇨🇳 China

Lanzado Aug 6, 2024 desde Taiyuan Satellite Launch Center

Loading…

Próximos Pases (próximas 24 horas)

TLE

ActualizadoSource: Space-Track

Época: Sep 14, 2026, 10:46 UTC

1 61828U 24140ACU 26257.44893510  .00001464  00000-0  79963-3 0  9994
2 61828  88.9706 264.5334 0122091 336.1480  23.4073 14.07873949103052

Sigue CZ-6A DEB en tiempo real con AllMySat

Download on the App Store